Погода в Солонцах

Россия / Хабаровский край     52°15′12″N   140°14′43″E
темп.,
°C
ветер,
м/с
пор.,
м/с
влажн.,
%
обл.,
%
осадки,
мм/ч
давл.,
гПа
погр.,
м
26 февраля, пт
пт2601:00−18ссв1191100 0.0 102222
04:00−19с1190100 0.0 102221
07:00−19ссв1188100 0.0 102325
10:00−16ссз1281100 0.0 1023253
13:00−13сз2375100 0.0 1024573
16:00−13ссз2480100 0.0 1024525
19:00−18ссз1290100 0.0 102627
22:00−20с1291100 0.0 102824
27 февраля, сб
сб2701:00−22с119084 0.0 102820
04:00−23вюв009067 0.0 102920
07:00−24ююв119376 0.0 103020
10:00−19ююв129144 0.0 1029195
13:00−14ю228274 0.0 1028388
16:00−13ююв238674 0.0 1025453
19:00−16в2296100 0.1 102530
22:00−17вюв119387 0.1 102221
28 февраля, вс
вс2801:00−16всв0194100 0.0 101820
04:00−14св1197100 0.8 101442
07:00−13з1297100 1.5 101170
10:00−11зюз1392100 2.0 1010286
13:00−8з248090 0.1 1010725
16:00−9с238395 0.2 1011588
19:00−16ссв238993 0.0 101356
22:00−19с129196 0.0 101541
1 марта, пн
пн101:00−22с119296 0.0 101621
04:00−24з119471 0.0 101720
07:00−24з119438 0.0 101820
10:00−18з268654 0.0 1019451
13:00−15зсз587595 0.1 10201362
16:00−15зсз467697 0.2 10211394
19:00−19ссз1190100 0.1 102320
22:00−20св1198100 0.1 102420
2 марта, вт
вт201:00−23всв019698 0.0 102420
04:00−23юв119899 0.1 102534
07:00−25юв119998 0.0 102620
10:00−22ю139399 0.1 1026347
13:00−20ю2287100 0.1 1026552
16:00−19ююз1180100 0.1 1025696
19:00−25в019065 0.0 102520
22:00−27св119332 0.0 102519